Terug naar catalogus

CZ-6A DEB

ActiefPO
NORAD 61386·DEBRIS·🇨🇳 China

Gelanceerd Aug 6, 2024 vanaf Taiyuan Satellite Launch Center

Loading…

Volgende Passages (komende 24 uur)

TLE

VersSource: Space-Track

Epoch: Sep 14, 2026, 10:05 UTC

1 61386U 24140XB  26257.42014726  .00004976  00000-0  13301-2 0  9999
2 61386  88.7937 242.3001 0014808 353.8460   6.2562 14.48156413106588

Volg CZ-6A DEB in realtime met AllMySat

Download on the App Store